Hourly Weather Ruszelczyce

Today, 20 April, Tuesday

Time Temperature Precipitation Wind Pressure Humidity
00:00 +7°C° 0 mm 1 mps 741 mmHg 93%
01:00 +7°C° 0 mm 1 mps 741 mmHg 93%
02:00 +7°C° 0 mm 1 mps 741 mmHg 93%
03:00 +7°C° 0 mm 1 mps 741 mmHg 93%
04:00 +7°C° 0 mm 1 mps 740 mmHg 93%
05:00 +7°C° 0 mm 1 mps 740 mmHg 93%
06:00 +7°C° 0.1 mm 1 mps 741 mmHg 90%
07:00 +8°C° 0.1 mm 1 mps 741 mmHg 87%
08:00 +9°C° 0.1 mm 1 mps 741 mmHg 84%
09:00 +9°C° 0.3 mm 2 mps 741 mmHg 77%
10:00 +10°C° 0.3 mm 2 mps 741 mmHg 70%
11:00 +11°C° 0.3 mm 3 mps 740 mmHg 62%
12:00 +13°C° 0.2 mm 2 mps 740 mmHg 59%
13:00 +14°C° 0.2 mm 2 mps 740 mmHg 55%
14:00 +14°C° 0.2 mm 2 mps 739 mmHg 51%
15:00 +14°C° 0.1 mm 2 mps 739 mmHg 52%
16:00 +14°C° 0.1 mm 2 mps 739 mmHg 53%
17:00 +14°C° 0.1 mm 2 mps 739 mmHg 55%
18:00 +12°C° 0.1 mm 2 mps 739 mmHg 62%
19:00 +10°C° 0.1 mm 2 mps 739 mmHg 70%
20:00 +9°C° 0.1 mm 1 mps 740 mmHg 78%
21:00 +9°C° 0.1 mm 1 mps 740 mmHg 81%
22:00 +8°C° 0.1 mm 1 mps 740 mmHg 83%
23:00 +8°C° 0.1 mm 1 mps 740 mmHg 86%

Tomorrow, 21 April, Wednesday

Time Temperature Precipitation Wind Pressure Humidity
00:00 +7°C° 0 mm 1 mps 740 mmHg 87%
01:00 +7°C° 0 mm 1 mps 740 mmHg 88%
02:00 +5°C° 0 mm 2 mps 740 mmHg 89%
03:00 +5°C° 0 mm 2 mps 740 mmHg 89%
04:00 +5°C° 0 mm 2 mps 740 mmHg 89%
05:00 +4°C° 0 mm 2 mps 740 mmHg 89%
06:00 +6°C° 0 mm 2 mps 740 mmHg 84%
07:00 +7°C° 0 mm 2 mps 740 mmHg 79%
08:00 +9°C° 0 mm 2 mps 740 mmHg 75%
09:00 +10°C° 0 mm 3 mps 740 mmHg 68%
10:00 +12°C° 0 mm 4 mps 740 mmHg 62%
11:00 +13°C° 0 mm 4 mps 740 mmHg 55%
12:00 +13°C° 0.3 mm 4 mps 740 mmHg 57%
13:00 +14°C° 0.3 mm 4 mps 740 mmHg 59%
14:00 +14°C° 0.3 mm 5 mps 740 mmHg 60%
15:00 +13°C° 0.4 mm 5 mps 740 mmHg 65%
16:00 +13°C° 0.4 mm 5 mps 740 mmHg 69%
17:00 +13°C° 0.4 mm 5 mps 740 mmHg 73%
18:00 +11°C° 0.4 mm 4 mps 740 mmHg 78%
19:00 +10°C° 0.4 mm 4 mps 740 mmHg 83%
20:00 +8°C° 0.4 mm 4 mps 740 mmHg 89%
21:00 +9°C° 0.1 mm 3 mps 740 mmHg 89%
22:00 +8°C° 0.1 mm 3 mps 740 mmHg 89%
23:00 +8°C° 0.1 mm 3 mps 740 mmHg 90%

Day after tomorrow, 22 April, Thursday

Time Temperature Precipitation Wind Pressure Humidity
00:00 +7°C° 0 mm 3 mps 740 mmHg 91%
01:00 +7°C° 0 mm 3 mps 740 mmHg 91%
02:00 +7°C° 0 mm 2 mps 740 mmHg 92%
03:00 +7°C° 0 mm 3 mps 740 mmHg 92%
04:00 +7°C° 0 mm 3 mps 740 mmHg 92%
05:00 +7°C° 0 mm 3 mps 740 mmHg 93%
06:00 +8°C° 0 mm 3 mps 740 mmHg 90%
07:00 +8°C° 0 mm 4 mps 740 mmHg 88%
08:00 +10°C° 0 mm 4 mps 740 mmHg 85%
09:00 +11°C° 0.3 mm 4 mps 740 mmHg 80%
10:00 +12°C° 0.3 mm 4 mps 740 mmHg 76%
11:00 +13°C° 0.3 mm 4 mps 740 mmHg 71%
12:00 +10°C° 1.3 mm 5 mps 740 mmHg 76%
13:00 +8°C° 1.3 mm 5 mps 741 mmHg 82%
14:00 +7°C° 1.3 mm 6 mps 741 mmHg 88%
15:00 +6°C° 2 mm 5 mps 741 mmHg 88%
16:00 +6°C° 2 mm 4 mps 742 mmHg 88%
17:00 +7°C° 2 mm 3 mps 742 mmHg 88%
18:00 +6°C° 0.2 mm 2 mps 742 mmHg 89%
19:00 +6°C° 0.2 mm 2 mps 742 mmHg 90%
20:00 +6°C° 0.2 mm 2 mps 743 mmHg 90%
21:00 +5°C° 0.1 mm 2 mps 743 mmHg 90%
22:00 +5°C° 0.1 mm 2 mps 743 mmHg 91%
23:00 +4°C° 0.1 mm 2 mps 743 mmHg 91%

23 April, Friday

Time Temperature Precipitation Wind Pressure Humidity
00:00 +4°C° 0 mm 2 mps 743 mmHg 90%
01:00 +4°C° 0 mm 2 mps 743 mmHg 89%
02:00 +4°C° 0 mm 2 mps 743 mmHg 89%
03:00 +3°C° 0 mm 2 mps 743 mmHg 89%
04:00 +3°C° 0 mm 2 mps 743 mmHg 90%
05:00 +2°C° 0 mm 2 mps 743 mmHg 91%
06:00 +2°C° 0 mm 3 mps 744 mmHg 87%
07:00 +3°C° 0 mm 4 mps 744 mmHg 83%
08:00 +3°C° 0 mm 5 mps 745 mmHg 79%
09:00 +5°C° 0.1 mm 5 mps 745 mmHg 73%
10:00 +5°C° 0.1 mm 6 mps 745 mmHg 66%
11:00 +6°C° 0.1 mm 7 mps 745 mmHg 60%
12:00 +6°C° 0.1 mm 7 mps 745 mmHg 60%
13:00 +7°C° 0.1 mm 6 mps 745 mmHg 60%
14:00 +7°C° 0.1 mm 6 mps 745 mmHg 60%
15:00 +7°C° 0.1 mm 6 mps 745 mmHg 61%
16:00 +7°C° 0.1 mm 6 mps 746 mmHg 62%
17:00 +7°C° 0.1 mm 6 mps 746 mmHg 63%
18:00 +6°C° 0 mm 5 mps 746 mmHg 68%
19:00 +4°C° 0 mm 4 mps 746 mmHg 72%
20:00 +3°C° 0 mm 4 mps 747 mmHg 77%
21:00 +3°C° 0 mm 3 mps 747 mmHg 78%
22:00 +2°C° 0 mm 3 mps 747 mmHg 79%
23:00 +2°C° 0 mm 3 mps 748 mmHg 81%

24 April, Saturday

Time Temperature Precipitation Wind Pressure Humidity
00:00 +1°C° 0 mm 3 mps 748 mmHg 83%
01:00 +1°C° 0 mm 2 mps 748 mmHg 86%
02:00 -1°C° 0 mm 2 mps 748 mmHg 89%
03:00 -1°C° 0 mm 2 mps 748 mmHg 87%
04:00 -1°C° 0 mm 2 mps 748 mmHg 85%
05:00 -1°C° 0 mm 2 mps 748 mmHg 84%
06:00 +2°C° 0 mm 2 mps 747 mmHg 76%
07:00 +3°C° 0 mm 3 mps 747 mmHg 69%
08:00 +5°C° 0 mm 3 mps 747 mmHg 61%
09:00 +6°C° 0 mm 4 mps 747 mmHg 58%
10:00 +8°C° 0 mm 5 mps 747 mmHg 55%
11:00 +9°C° 0 mm 6 mps 746 mmHg 52%
12:00 +9°C° 0.1 mm 6 mps 746 mmHg 52%
13:00 +10°C° 0.1 mm 6 mps 746 mmHg 53%
14:00 +10°C° 0.1 mm 6 mps 746 mmHg 53%
15:00 +10°C° 0 mm 6 mps 745 mmHg 56%
16:00 +10°C° 0 mm 5 mps 745 mmHg 58%
17:00 +10°C° 0 mm 5 mps 745 mmHg 60%
18:00 +8°C° 0 mm 4 mps 745 mmHg 68%
19:00 +7°C° 0 mm 3 mps 745 mmHg 75%
20:00 +6°C° 0 mm 2 mps 745 mmHg 82%
21:00 +5°C° 0 mm 2 mps 745 mmHg 83%
22:00 +5°C° 0 mm 2 mps 746 mmHg 84%
23:00 +5°C° 0 mm 2 mps 746 mmHg 85%

25 April, Sunday

Time Temperature Precipitation Wind Pressure Humidity
00:00 +5°C° 0 mm 2 mps 746 mmHg 85%
01:00 +3°C° 0 mm 3 mps 746 mmHg 85%
02:00 +3°C° 0 mm 3 mps 746 mmHg 85%
03:00 +3°C° 0 mm 3 mps 746 mmHg 86%
04:00 +3°C° 0 mm 3 mps 747 mmHg 87%
05:00 +3°C° 0 mm 3 mps 747 mmHg 88%
06:00 +3°C° 0.1 mm 3 mps 747 mmHg 88%
07:00 +3°C° 0.1 mm 3 mps 748 mmHg 88%
08:00 +4°C° 0.1 mm 2 mps 748 mmHg 88%
09:00 +4°C° 0.1 mm 3 mps 748 mmHg 76%
10:00 +5°C° 0.1 mm 3 mps 748 mmHg 65%
11:00 +7°C° 0.1 mm 3 mps 748 mmHg 53%
12:00 +7°C° 0 mm 4 mps 748 mmHg 49%
13:00 +8°C° 0 mm 4 mps 748 mmHg 45%
14:00 +8°C° 0 mm 4 mps 748 mmHg 40%
15:00 +8°C° 0 mm 5 mps 748 mmHg 42%
16:00 +8°C° 0 mm 5 mps 748 mmHg 45%
17:00 +9°C° 0 mm 5 mps 748 mmHg 47%
18:00 +7°C° 0 mm 4 mps 748 mmHg 52%
19:00 +5°C° 0 mm 3 mps 748 mmHg 58%
20:00 +4°C° 0 mm 2 mps 748 mmHg 64%
21:00 +3°C° 0 mm 2 mps 749 mmHg 66%
22:00 +3°C° 0 mm 2 mps 749 mmHg 68%
23:00 +2°C° 0 mm 2 mps 749 mmHg 70%
Show more